Weather in Offenbach am Main

Germany     50°05′42″N   8°46′55″E
temp.,
°C
wind,
m/s
gust,
m/s
humid.,
%
clouds,
%
prec.,
mm/h
press.,
hPa
HPBL,
m
8 march, mon
mon801:00+1nne24660 0.0 1023303
04:000nne13720 0.0 1022163
07:000ese017523 0.0 102253
10:00+4nnw116128 0.0 1023357
13:00+6nne235738 0.0 1022992
16:00+7nne125288 0.0 10211131
19:00+5nne125990 0.0 1022261
22:00+3ne137378 0.1 1022139
9 march, tue
tue901:00+3ne237283 0.1 1022159
04:00+2ne1274100 0.0 1020147
07:00+2ene1174100 0.0 1020116
10:00+4sw1265100 0.0 1020413
13:00+7sw2457100 0.0 1020945
16:00+6wsw357899 0.2 1018595
19:00+5w2584100 0.9 1019549
22:00+5w2580100 0.4 1020537
10 march, wed
wed1001:00+4sw258791 0.6 1020267
04:00+4sw258667 0.1 1020228
07:00+4sw258184 0.1 1021262
10:00+6sw357294 0.0 1022458
13:00+9sw355489 0.0 10211096
16:00+10sw365266 0.0 10191337
19:00+9ssw266383 0.0 1018439
22:00+8s41059100 0.0 1017669
11 march, thu
thu1101:00+8ssw41260100 0.0 1015884
04:00+8ssw71559100 0.2 10121236
07:00+8sw71664100 0.2 10101162
10:00+10sw71767100 0.0 10081165
13:00+10sw71874100 0.4 10071512
16:00+11wsw71879100 2.2 10061803
19:00+10wsw4146999 2.6 10071574
22:00+9wsw6156693 0.8 10101645
12 march, fri
fri1201:00+7wsw5146660 0.8 10121502
04:00+6wsw5127016 0.0 10131238
07:00+5wsw5117330 0.0 10141130
10:00+7sw6116478 0.1 10151435
13:00+8wsw6125888 0.1 10141591
16:00+11wsw5114766 0.0 10111834
19:00+9sw5115676 0.1 10101309
22:00+8sw51360100 0.0 10101299